User: anonymous   Login
Location: Newark
(19.2128°S, 49.7858°W)
Time: 18:11:57
(UTC+00:00)
Language:

Envisat - Orbit

View from above orbital plane
View from above orbital plane
View from above satellite
View from above satellite

Ground track
Ground track

The orbit data is extracted from the following two-line orbital elements,

1 27386U 02009A   19294.52030203  .00000013  00000-0  17639-4 0  9991
2 27386  98.1450 309.1330 0001200  94.0591  62.2952 14.37960345924132
Epoch (UTC): 21 October 2019 12:29:14
Eccentricity: 0.0001200
inclination: 98.1450°
perigee height: 764 km
apogee height: 766 km
right ascension of ascending node: 309.1330°
argument of perigee: 94.0591°
revolutions per day: 14.37960345
mean anomaly at epoch: 62.2952°
orbit number at epoch: 92413

The dashed part of the orbit path shows where the satellite is in the earth's shadow,  

DLR